Easton, MD

2:03 AM EDT on July 26, 2017 (GMT -0400)
Easton / Newnam

Weather History for KESN - November, 2011

Change the Weather History Date:

Tuesday, November 22, 2011

  Actual Average Record
Temperature  
Mean Temperature 55 °F -  
Max Temperature 60 °F 52 °F 75 °F (1953)
Min Temperature 50 °F 36 °F 20 °F (1969)
Degree Days  
Heating Degree Days 10    
Growing Degree Days 5 (Base 50)    
Moisture  
Dew Point 55 °F    
Average Humidity 98    
Maximum Humidity 100    
Minimum Humidity 94    
Precipitation  
Precipitation 0.05 in - - ()
Sea Level Pressure  
Sea Level Pressure 30.16 in    
Wind  
Wind Speed 5 mph (SE)    
Max Wind Speed 15 mph    
Max Gust Speed 24 mph    
Visibility 7 miles    
Events Rain    
Averages and records for this station are not official NWS values.
T = Trace of Precipitation, MM = Missing Value Source: NWS Daily Summary

Daily Weather History Graph

Daily Weather History Graph

Search for Another Location

Airport or City:

Trip Planner

Search our weather history database for the weather conditions in past years. The results will help you decide how hot, cold, wet, or windy it might be!

Date:

Astronomy

Nov. 22, 2011 Rise Set
Actual Time 6:54 AM EST 4:46 PM EST
Civil Twilight 6:25 AM EST 5:15 PM EST
Nautical Twilight 5:52 AM EST 5:47 PM EST
Astronomical Twilight 5:20 AM EST 6:19 PM EST
Moon 3:43 AM EST (11/22) 2:43 PM EST (11/22)
Length of Visible Light 10h 50m
Length of Day
9h 52m
Waning Crescent, 9% of the Moon is Illuminated
Nov 22
Waning Crescent
Nov 25
New
Dec 2
First Quarter
Dec 10
Full
Dec 17
Last Quarter

Hourly Weather History & Observations

Time (EST) Temp. Dew Point Humidity Pressure Visibility Wind Dir Wind Speed Gust Speed Precip Events Conditions
12:24 AM 51.8 °F 50.0 °F 94% 30.28 in 10.0 mi ENE 3.5 mph - N/A   Overcast
12:42 AM 51.8 °F 50.0 °F 94% 30.26 in 10.0 mi East 4.6 mph - N/A   Mostly Cloudy
1:03 AM 51.8 °F 50.0 °F 94% 30.28 in 10.0 mi ENE 4.6 mph - N/A   Mostly Cloudy
1:21 AM 51.8 °F 50.0 °F 94% 30.29 in 10.0 mi East 3.5 mph - N/A   Mostly Cloudy
1:42 AM 51.8 °F 50.0 °F 94% 30.28 in 10.0 mi ENE 3.5 mph - N/A   Mostly Cloudy
2:00 AM 51.8 °F 50.0 °F 94% 30.28 in 10.0 mi Calm Calm - N/A   Mostly Cloudy
2:18 AM 51.8 °F 50.0 °F 94% 30.27 in 10.0 mi East 3.5 mph - N/A   Mostly Cloudy
2:39 AM 51.8 °F 50.0 °F 94% 30.28 in 10.0 mi Calm Calm - N/A   Mostly Cloudy
2:57 AM 51.8 °F 50.0 °F 94% 30.27 in 10.0 mi Calm Calm - N/A   Mostly Cloudy
3:18 AM 51.8 °F 50.0 °F 94% 30.27 in 10.0 mi Calm Calm - N/A   Mostly Cloudy
3:36 AM 51.8 °F 50.0 °F 94% 30.27 in 10.0 mi Calm Calm - N/A   Mostly Cloudy
3:57 AM 50.0 °F 50.0 °F 100% 30.27 in 10.0 mi East 3.5 mph - N/A Rain Light Rain
4:15 AM 50.0 °F 50.0 °F 100% 30.27 in 7.0 mi Calm Calm - 0.02 in Rain Light Rain
4:36 AM 50.0 °F 50.0 °F 100% 30.27 in 7.0 mi East 3.5 mph - 0.03 in Rain Rain
4:54 AM 50.0 °F 50.0 °F 100% 30.26 in 7.0 mi East 3.5 mph - 0.04 in Rain Light Rain
5:09 AM 50.0 °F 50.0 °F 100% 30.27 in 7.0 mi East 3.5 mph - 0.01 in Rain Light Rain
5:50 AM 50.0 °F 50.0 °F 100% 30.28 in 7.0 mi Calm Calm - N/A   Drizzle
6:50 AM 50.0 °F 50.0 °F 100% 30.29 in 5.0 mi Calm Calm - N/A   Overcast
7:50 AM 51.8 °F 51.8 °F 100% 30.30 in 2.0 mi East 4.6 mph - N/A Rain Light Rain
8:50 AM 53.6 °F 53.6 °F 100% 30.30 in 2.5 mi East 3.5 mph - N/A Rain Light Rain
9:50 AM 53.6 °F 53.6 °F 100% 30.29 in 3.0 mi ESE 3.5 mph - N/A Rain Light Rain
10:55 AM 55.4 °F 55.4 °F 100% 30.26 in 3.0 mi SE 4.6 mph - N/A   Overcast
11:50 AM 55.4 °F 55.4 °F 100% 30.23 in 2.0 mi SE 4.6 mph - N/A   Overcast
12:50 PM 57.2 °F 57.2 °F 100% 30.20 in 2.5 mi SE 4.6 mph - N/A Rain Light Rain
1:50 PM 57.2 °F 57.2 °F 100% 30.17 in 2.5 mi SE 5.8 mph - N/A Rain Light Rain
2:50 PM 57.2 °F 57.2 °F 100% 30.15 in 3.0 mi SE 9.2 mph - N/A Rain Light Rain
3:50 PM 57.2 °F 57.2 °F 100% 30.12 in 4.0 mi SE 8.1 mph - N/A   Drizzle
4:53 PM 57.2 °F 57.2 °F 100% 30.11 in 4.0 mi SE 11.5 mph - N/A Rain Light Rain
5:53 PM 57.2 °F 57.2 °F 100% 30.08 in 3.0 mi SSE 13.8 mph 18.4 mph N/A Rain Rain
6:53 PM 57.2 °F 57.2 °F 100% 30.05 in 4.0 mi SSE 13.8 mph 18.4 mph N/A   Overcast
7:53 PM 59.0 °F 59.0 °F 100% 30.04 in 5.0 mi SSE 11.5 mph - N/A   Overcast
8:53 PM 59.0 °F 59.0 °F 100% 30.01 in 7.0 mi South 10.4 mph - N/A   Mostly Cloudy
9:18 PM 60.8 °F 60.8 °F 100% 29.99 in 10.0 mi South 13.8 mph - N/A   Scattered Clouds
9:36 PM 60.8 °F 60.8 °F 100% 29.98 in 10.0 mi South 12.7 mph 17.3 mph N/A   Clear
9:57 PM 60.8 °F 60.8 °F 100% 29.97 in 10.0 mi South 13.8 mph - N/A   Scattered Clouds
10:15 PM 60.8 °F 60.8 °F 100% 29.95 in 10.0 mi South 15.0 mph 20.7 mph N/A   Clear
10:36 PM 60.8 °F 60.8 °F 100% 29.94 in 10.0 mi South 13.8 mph 24.2 mph N/A   Scattered Clouds
10:54 PM 60.8 °F 60.8 °F 100% 29.93 in 10.0 mi South 15.0 mph 21.9 mph N/A   Scattered Clouds
11:15 PM 60.8 °F 60.8 °F 100% 29.91 in 10.0 mi South 12.7 mph 19.6 mph N/A   Scattered Clouds
11:33 PM 60.8 °F 60.8 °F 100% 29.90 in 10.0 mi South 11.5 mph 17.3 mph N/A   Scattered Clouds
11:54 PM 60.8 °F 60.8 °F 100% 29.88 in 10.0 mi South 15.0 mph 21.9 mph N/A   Scattered Clouds